Regional Weather Roundup
Issued by NWS

Home | Current Version | Previous Version | Text Only | Print | Product List | Glossary Off
Versions: 1 2 3 4 5 6 7 8 9 10 11 12 13 14 15 16 17 18 19 20 21 22 23 24 25 26 27 28 29 30 31 32 33 34 35 36 37 38 39 40 41 42 43 44 45 46 47 48 49 50

840
ASUS43 KDMX 300206
RWRIA

WEATHER ROUNDUP FOR IOWA
NATIONAL WEATHER SERVICE DES MOINES IA
900 PM CDT WED MAR 29 2017

NOTE: "FAIR" INDICATES FEW OR NO CLOUDS BELOW 12,000 FEET WITH NO
SIGNIFICANT WEATHER AND/OR OBSTRUCTIONS TO VISIBILITY.

* - THESE STATIONS ARE NOT NWS STATIONS...THUS NOT UNDER NWS
QUALITY CONTROL.  THEY ALSO DO NOT REPORT WEATHER SUCH
AS PRECIPITATION OR FOG.

IAZ001>003-012>014-020>022-031>034-043>046-300300-
   NORTHWEST IOWA

CITY           SKY/WX    TMP DP  RH WIND       PRES   REMARKS
CARROLL *      LGT RAIN  41  41 100 NE25G33   29.91R
CHEROKEE *     CLOUDY    39  38  96 E21G31    29.96S WCI  29
DENISON *      LGT RAIN  39  39 100 NE24G33   29.90S WCI  28
LE MARS *      CLOUDY    41  37  87 E20G28    29.96S
ORANGE CITY *  CLOUDY    39  37  93 E18G31    29.96S WCI  30
SHELDON *      CLOUDY    39  37  93 E23G31    29.95F WCI  29
SIOUX CITY     CLOUDY    42  38  85 E22G32    29.91F
SPENCER        CLOUDY    40  37  89 E30G37    29.97F WCI  28
STORM LAKE *   CLOUDY    37  37 100 E28G46    29.94R WCI  25
$$

IAZ055>058-069>071-079>083-090>094-300300-
   SOUTHWEST IOWA

CITY           SKY/WX    TMP DP  RH WIND       PRES   REMARKS
ATLANTIC *     CLOUDY    43  41  93 NE21G29   29.80F
AUDUBON *      DRIZZLE   41  37  87 NE21G26   29.86S
CLARINDA *     CLOUDY    48  46  93 E12G20    29.76S
COUNCIL BLFS * CLOUDY    41  41 100 NE23G30   29.79F
CRESTON *      LGT RAIN  45  45 100 NE30G38   29.77F
HARLAN  *      CLOUDY    41  41 100 NE23G32   29.86F
LAMONI         LGT RAIN  48  47  96 NE14      29.77R
RED OAK *      CLOUDY    45  45 100 NE16G22   29.76F
SHENANDOAH *   CLOUDY    46  45  93 NE15      29.75S
$$

IAZ047>049-059>061-072>074-084-300300-
   CENTRAL IOWA

CITY           SKY/WX    TMP DP  RH WIND       PRES   REMARKS
AMES           CLOUDY    41  41 100 E18G28    29.90F FOG
BOONE *        LGT RAIN  41  41 100 E29G39    29.87F
CHARITON *     CLOUDY    45  45 100 E18G25    29.79F
DES MOINES     TSTM      44  42  93 E18G29    29.86S FOG
GRINNELL*      LGT RAIN  42  40  95 E22G32    29.91S
MARSHALLTOWN   CLOUDY    41  39  93 E29G36    29.92F FOG
NEWTON *       CLOUDY    43  41  93 E26G38    29.86F FOG
PELLA *        RAIN      44  42  95 E18G26    29.85F
PERRY *        LGT RAIN  42  41  97 E16G23    29.91R
$$

IAZ004>006-015-016-023>025-035-036-300300-
   NORTH CENTRAL IOWA

CITY           SKY/WX    TMP DP  RH WIND       PRES   REMARKS
ALGONA *       CLOUDY    39  39 100 E24G33    29.99F WCI  28
CLARION *      CLOUDY    39  39 100 E25G36    29.96F FOG     WCI  28
ESTHERVILLE    LGT RAIN  38  38 100 E18       30.00F WCI  28
FORT DODGE *   CLOUDY    39  36  87 E29G35    29.95S WCI  28
MASON CITY     LGT RAIN  39  36  89 E23G30    30.03F WCI  28
FOREST CITY *  DRIZZLE   37  36  93 E18G31    30.02S WCI  27
WEBSTER CITY * CLOUDY    39  39 100 E26G35    29.92S FOG     WCI  28
IOWA FALLS *   LGT RAIN  41  39  95 E23G33    29.96F
$$

IAZ007>011-017>019-026>030-037>042-050>054-066-300300-
   NORTHEAST IOWA

CITY           SKY/WX    TMP DP  RH WIND       PRES   REMARKS
CEDAR RAPIDS   LGT RAIN  41  32  70 E23G32    29.93F
CHARLES CITY * CLOUDY    39  39 100 E20G30    30.04S WCI  30
CLINTON *      LGT RAIN  42  39  89 E24G30    30.00F
DECORAH *      LGT RAIN  39  37  93 E21G28    30.06F WCI  29
DUBUQUE        CLOUDY    39  37  92 E16G32    30.03F FOG     WCI  30
MONTICELLO *   CLOUDY    41  39  93 E20       30.00F FOG
OELWEIN *      LGT RAIN  39  39 100 E22       30.01F WCI  29
WATERLOO       CLOUDY    40  37  89 E26G33    29.98F FOG     WCI  29
$$

IAZ064-065-067-068-078-300300-
   EAST CENTRAL IOWA

CITY           SKY/WX    TMP DP  RH WIND       PRES   REMARKS
DAVENPORT      LGT RAIN  42  40  92 E22G33    29.97F FOG
IOWA CITY      LGT RAIN  44  40  85 E21G30    29.94F
MUSCATINE *    CLOUDY    45  41  87 E17G25    29.94F
QUAD CITIES    LGT RAIN  44  40  85 E22G28    29.96F
$$

IAZ062-063-075>077-085>089-095>099-300300-
   SOUTHEAST IOWA

CITY           SKY/WX    TMP DP  RH WIND       PRES   REMARKS
BURLINGTON     CLOUDY    49  44  83 E20G25    29.87F
FAIRFIELD *    CLOUDY    46  45  93 E22       29.85F
FORT MADISON * CLOUDY    48  48 100 E17G24    29.85F
KEOKUK *       CLOUDY    50  46  87 E18G26    29.82F
OSKALOOSA *    LGT RAIN  44  42  94 E23G30    29.85F
CENTERVILLE *  CLOUDY    46  46 100 NE14G23   29.80F
OTTUMWA        LGT RAIN  46  45  96 E18G26    29.84F
WASHINGTON *   CLOUDY    45  45 100 E29G35    29.89F FOG
$$

ABBREVIATIONS USED IN REMARKS
   TC - TEMPERATURES IN CELSIUS
  WCI - WIND CHILL INDEX
   HX - HEAT INDEX
  VSB - VISIBILITY
$$





USA.gov is the U.S. government's official web portal to all federal, state and local government web resources and services.